Orbital Elements at Epoch 2459200.5 (2020-Dec-17.0) TDB
Reference: JPL 19 (heliocentric ecliptic J2000)
Element | Value | Uncertainty (1-sigma) | Units |
e | .1091314097041062 | 3.6966e-08 | |
a | 2.202671760512751 | 9.7093e-09 | au |
q | 1.962291086172569 | 7.8859e-08 | au |
i | 2.866616392979994 | 3.8837e-06 | deg |
node | 248.2692217114162 | 8.3969e-05 | deg |
peri | 183.090994813639 | 8.6504e-05 | deg |
M | 228.7611960071754 | 2.3115e-05 | deg |
tp | 2459635.794185365713 (2022-Feb-25.29418537) | 7.8195e-05 | TDB |
period | 1194.051621654708 3.27 | 7.895e-06 2.162e-08 | d yr |
n | .3014945028097819 | 1.9935e-09 | deg/d |
Q | 2.443052434852933 | 1.0769e-08 | au |
|
| | Orbit Determination Parameters
Additional Information
|